Hurghada, Egypt

3:52 AM EET on May 28, 2017 (GMT +0200)
Hurghada

Weather History for HEGN - July, 2013

Change the Weather History Date:

Thursday, July 4, 2013

  Actual Average Record
Temperature  
Mean Temperature 90 °F -  
Max Temperature 102 °F 96 °F 104 °F (2005)
Min Temperature 77 °F 81 °F 77 °F (2013)
Cooling Degree Days 24    
Growing Degree Days 40 (Base 50)    
Moisture  
Dew Point 58 °F    
Average Humidity 32    
Maximum Humidity 44    
Minimum Humidity 20    
Precipitation  
Precipitation 0.00 in - - ()
Sea Level Pressure  
Sea Level Pressure 29.66 in    
Wind  
Wind Speed 10 mph ()    
Max Wind Speed 18 mph    
Max Gust Speed -    
Visibility 6.0 miles    
Events      
Averages and records for this station are not official NWS values.
T = Trace of Precipitation, MM = Missing Value Source: Averaged Metar Reports

Daily Weather History Graph

Daily Weather History Graph

Search for Another Location

Airport or City:

Trip Planner

Search our weather history database for the weather conditions in past years. The results will help you decide how hot, cold, wet, or windy it might be!

Date:

Astronomy

Jul. 04, 2013 Rise Set
Actual Time 4:55 AM EET 6:43 PM EET
Civil Twilight 4:29 AM EET 7:09 PM EET
Nautical Twilight 3:57 AM EET 7:41 PM EET
Astronomical Twilight 3:23 AM EET 8:14 PM EET
Moon 1:50 AM EET (7/4) 3:36 PM EET (7/4)
Length of Visible Light 14h 40m
Length of Day
13h 48m
Waning Crescent, 13% of the Moon is Illuminated
Jul 4
Waning Crescent
Jul 8
New
Jul 16
First Quarter
Jul 22
Full
Jul 29
Last Quarter

Hourly Weather History & Observations

Time (EET) Temp. Heat Index Dew Point Humidity Pressure Visibility Wind Dir Wind Speed Gust Speed Precip Events Conditions
12:00 AM 84.2 °F - 51.8 °F 33% 29.65 in - WNW 13.8 mph - N/A   Clear
1:00 AM 84.2 °F - 51.8 °F 33% 29.65 in - WNW 12.7 mph - N/A   Clear
2:00 AM 82 °F - 54 °F 28% 29.66 in 6 mi NNW 9.2 mph - -  
3:00 AM 78.8 °F - 53.6 °F 42% 29.65 in - NW 6.9 mph - N/A   Clear
4:00 AM 78.8 °F - 53.6 °F 42% 29.65 in - NNW 9.2 mph - N/A   Clear
5:00 AM 78.8 °F - 55.4 °F 44% 29.65 in - NNW 8.1 mph - N/A   Clear
6:00 AM 80.6 °F 80.5 °F 55.4 °F 42% 29.68 in - NNW 8.1 mph - N/A   Clear
7:00 AM 84.2 °F 83.0 °F 55.4 °F 37% 29.68 in - North 10.4 mph - N/A   Clear
8:00 AM 89 °F - 54 °F 21% 29.70 in 6 mi North 11.5 mph - -  
8:00 AM 89.6 °F 87.3 °F 53.6 °F 29% 29.68 in - North 11.5 mph - N/A   Clear
9:00 AM 89.6 °F 89.5 °F 60.8 °F 38% 29.68 in - North 15.0 mph - N/A   Clear
10:00 AM 93.2 °F 94.1 °F 62.6 °F 36% 29.68 in - North 18.4 mph - N/A   Clear
11:00 AM 95.0 °F 97.0 °F 64.4 °F 36% 29.68 in - North 18.4 mph - N/A   Clear
12:00 PM 95.0 °F 98.5 °F 66.2 °F 39% 29.68 in - North 13.8 mph - N/A   Clear
1:00 PM 98.6 °F 100.0 °F 62.6 °F 30% 29.65 in - NNE 10.4 mph - N/A   Clear
2:00 PM 100 °F - 62 °F 20% 29.65 in 6 mi NNE 11.5 mph - -  
2:00 PM 100.4 °F 102.4 °F 62.6 °F 29% 29.65 in - NNE 11.5 mph - N/A   Clear
3:00 PM 102.2 °F 103.6 °F 60.8 °F 26% 29.62 in - NNE 11.5 mph - N/A   Clear
4:00 PM 100.4 °F 99.7 °F 57.2 °F 24% 29.62 in - NNE 11.5 mph - N/A   Clear
5:00 PM 98.6 °F 98.5 °F 59.0 °F 27% 29.62 in - North 11.5 mph - N/A   Clear
6:00 PM 95.0 °F 96.0 °F 62.6 °F 34% 29.62 in - North 6.9 mph - N/A   Clear
7:00 PM 93.2 °F 94.1 °F 62.6 °F 36% 29.62 in - NNW 3.5 mph - N/A   Clear
8:00 PM 91 °F - 60 °F 25% 29.66 in 6 mi NNW 9.2 mph - -  
8:00 PM 91.4 °F 91.4 °F 60.8 °F 36% 29.65 in - NNW 9.2 mph - N/A   Clear
9:00 PM 89.6 °F 87.3 °F 53.6 °F 29% 29.65 in - NNW 6.9 mph - N/A   Clear
10:00 PM 87.8 °F - 48.2 °F 25% 29.68 in - NNW 6.9 mph - N/A   Clear
11:00 PM 86.0 °F - 50.0 °F 29% 29.68 in - NW 8.1 mph - N/A   Clear